GBSAM EGNH-EGNS

Flight info

Callsign GBSAM
Flight time N/A
Altitude 14000
Route MASOP
Aircraft C700/M-V/N

Departure

Time 2026-04-28 17:21
Airport Blackpool Airport (EGNH)

Arrival

Time N/A
Airport Isle of Man Airport (EGNS)
Time Latitude Longitude Altitude Speed Heading
2026-04-28 16:59 53.77732 -3.04180 34 ft 0 kts 178°
2026-04-28 17:18 53.77695 -3.04179 34 ft 11 kts 181°
2026-04-28 17:18 53.77607 -3.04199 34 ft 16 kts 207°
2026-04-28 17:18 53.77521 -3.04291 34 ft 16 kts 212°
2026-04-28 17:18 53.77409 -3.04393 34 ft 19 kts 194°
2026-04-28 17:19 53.77307 -3.04380 34 ft 0 kts 163°
2026-04-28 17:19 53.77307 -3.04379 34 ft 1 kts 163°
2026-04-28 17:19 53.77258 -3.04348 33 ft 13 kts 152°
2026-04-28 17:20 53.77221 -3.04237 31 ft 0 kts 95°
2026-04-28 17:20 53.77216 -3.04130 32 ft 38 kts 95°
2026-04-28 17:21 53.77172 -3.03209 34 ft 116 kts 94°
2026-04-28 17:21 53.77098 -3.01607 226 ft 151 kts 96°
2026-04-28 17:21 53.77063 -2.99831 825 ft 141 kts 73°
2026-04-28 17:22 53.78602 -2.99744 1544 ft 160 kts 301°
2026-04-28 17:22 53.78615 -3.01615 1820 ft 165 kts 251°
2026-04-28 17:22 53.78250 -3.03482 2099 ft 170 kts 257°
2026-04-28 17:23 53.78587 -3.07799 3747 ft 206 kts 297°
2026-04-28 17:23 53.79141 -3.09611 4796 ft 218 kts 301°
2026-04-28 17:23 53.79880 -3.11957 6157 ft 233 kts 300°
2026-04-28 17:23 53.80628 -3.14471 7577 ft 244 kts 300°
2026-04-28 17:24 53.81395 -3.17081 9059 ft 251 kts 301°
2026-04-28 17:24 53.82186 -3.19757 10615 ft 257 kts 301°
2026-04-28 17:24 53.82994 -3.22487 12127 ft 261 kts 302°
2026-04-28 17:24 53.83806 -3.25236 13683 ft 261 kts 303°
2026-04-28 17:25 53.84667 -3.28125 14491 ft 296 kts 303°
2026-04-28 17:25 53.86633 -3.34820 14516 ft 327 kts 301°
2026-04-28 17:25 53.87644 -3.38291 14521 ft 330 kts 301°
2026-04-28 17:26 53.88668 -3.41769 14522 ft 329 kts 301°
2026-04-28 17:26 53.89684 -3.45230 14537 ft 327 kts 301°
2026-04-28 17:26 53.90671 -3.48624 15938 ft 311 kts 302°
2026-04-28 17:26 53.91605 -3.51837 17844 ft 297 kts 303°
2026-04-28 17:27 53.92495 -3.54890 19527 ft 280 kts 304°
2026-04-28 17:27 53.93330 -3.57757 20960 ft 263 kts 305°
2026-04-28 17:27 53.94126 -3.60495 22267 ft 248 kts 306°
2026-04-28 17:27 53.94870 -3.63042 23329 ft 242 kts 307°
2026-04-28 17:28 53.95621 -3.65602 24180 ft 242 kts 306°
2026-04-28 17:28 53.97103 -3.70720 25655 ft 240 kts 307°
2026-04-28 17:28 53.97840 -3.73264 26361 ft 240 kts 307°
2026-04-28 17:29 53.98574 -3.75801 27071 ft 239 kts 307°
2026-04-28 17:29 53.99307 -3.78339 27764 ft 239 kts 307°
2026-04-28 17:29 54.00038 -3.80873 28459 ft 238 kts 307°
2026-04-28 17:30 54.01495 -3.85931 29802 ft 238 kts 307°
2026-04-28 17:30 54.02944 -3.90974 31002 ft 237 kts 308°
2026-04-28 17:30 54.03665 -3.93487 31527 ft 236 kts 308°
2026-04-28 17:31 54.04384 -3.95996 32035 ft 236 kts 308°
2026-04-28 17:31 54.05815 -4.00995 33007 ft 235 kts 308°
2026-04-28 17:32 54.07238 -4.05980 33922 ft 234 kts 309°
2026-04-28 17:32 54.07947 -4.08467 34355 ft 233 kts 309°
2026-04-28 17:32 54.08654 -4.10949 34713 ft 233 kts 309°
2026-04-28 17:32 54.09362 -4.13435 35045 ft 234 kts 309°
2026-04-28 17:33 54.10070 -4.15926 35105 ft 234 kts 309°
2026-04-28 17:33 54.10792 -4.18456 35246 ft 240 kts 308°
2026-04-28 17:33 54.11516 -4.21010 34944 ft 245 kts 308°
2026-04-28 17:33 54.11764 -4.21870 34681 ft 254 kts 308°
2026-04-28 17:34 54.13171 -4.26783 33155 ft 296 kts 305°
2026-04-28 17:34 54.14026 -4.30098 32468 ft 315 kts 295°
2026-04-28 17:34 54.14477 -4.33754 32441 ft 316 kts 283°
2026-04-28 17:34 54.14465 -4.37576 32519 ft 331 kts 267°
2026-04-28 17:35 54.13943 -4.41376 33327 ft 329 kts 253°
2026-04-28 17:35 54.13018 -4.44967 33954 ft 332 kts 247°
2026-04-28 17:35 54.12055 -4.48537 34558 ft 331 kts 248°
2026-04-28 17:35 54.11100 -4.52111 35080 ft 331 kts 248°
2026-04-28 17:36 54.10151 -4.55626 35593 ft 331 kts 247°
2026-04-28 17:36 54.09184 -4.59188 36092 ft 331 kts 247°
2026-04-28 17:36 54.08117 -4.62660 36555 ft 332 kts 234°
2026-04-28 17:36 54.06625 -4.65809 36664 ft 346 kts 226°
2026-04-28 17:37 54.04960 -4.68797 36704 ft 361 kts 224°
2026-04-28 17:37 54.03163 -4.71899 36956 ft 369 kts 223°
2026-04-28 17:37 54.01358 -4.74985 37471 ft 367 kts 223°
2026-04-28 17:37 53.99714 -4.78282 38011 ft 367 kts 236°
2026-04-28 17:38 53.98558 -4.82134 38479 ft 365 kts 252°
2026-04-28 17:38 53.97974 -4.86299 38914 ft 361 kts 268°
2026-04-28 17:38 53.97988 -4.90512 39275 ft 355 kts 283°
2026-04-28 17:38 53.98592 -4.94513 39618 ft 345 kts 298°
2026-04-28 17:39 53.99720 -4.98012 39950 ft 333 kts 314°
2026-04-28 17:39 54.01284 -5.00815 40266 ft 321 kts 329°
2026-04-28 17:39 54.05223 -5.03757 40483 ft 306 kts 359°
2026-04-28 17:40 54.07286 -5.03760 40456 ft 290 kts 14°
2026-04-28 17:40 54.09281 -5.03099 40458 ft 296 kts 19°
2026-04-28 17:40 54.11312 -5.02204 40459 ft 306 kts 20°
2026-04-28 17:40 54.13398 -5.01210 40457 ft 317 kts 20°
2026-04-28 17:41 54.15551 -5.00153 40463 ft 327 kts 21°
2026-04-28 17:41 54.20045 -4.97896 40448 ft 347 kts 21°
2026-04-28 17:42 54.24354 -4.94092 40456 ft 357 kts 40°
2026-04-28 17:42 54.27959 -4.88047 40456 ft 371 kts 54°
2026-04-28 17:43 54.30829 -4.80489 40453 ft 387 kts 59°
2026-04-28 17:43 54.33151 -4.73799 40447 ft 399 kts 59°
2026-04-28 17:44 54.35832 -4.65283 40446 ft 413 kts 68°
2026-04-28 17:44 54.37419 -4.55776 40449 ft 407 kts 75°
2026-04-28 17:44 54.38019 -4.51122 40446 ft 396 kts 76°
2026-04-28 17:45 54.38566 -4.46611 41357 ft 374 kts 77°
2026-04-28 17:45 54.39070 -4.42330 42131 ft 364 kts 77°
2026-04-28 17:45 54.39569 -4.38076 42618 ft 355 kts 77°
2026-04-28 17:45 54.40032 -4.34090 43912 ft 327 kts 77°
2026-04-28 17:46 54.40468 -4.30330 44528 ft 320 kts 77°
2026-04-28 17:46 54.40828 -4.26540 44670 ft 324 kts 86°
2026-04-28 17:46 54.40652 -4.22703 44980 ft 324 kts 101°
2026-04-28 17:46 54.39890 -4.19047 45142 ft 329 kts 116°
2026-04-28 17:47 54.38575 -4.15814 45305 ft 334 kts 130°
2026-04-28 17:47 54.36817 -4.13264 45457 ft 339 kts 144°
2026-04-28 17:47 54.34641 -4.11454 45454 ft 349 kts 160°
2026-04-28 17:48 54.29760 -4.10783 45450 ft 367 kts 188°
2026-04-28 17:48 54.27283 -4.11978 45450 ft 374 kts 202°
2026-04-28 17:48 54.24993 -4.14153 45449 ft 381 kts 216°
2026-04-28 17:48 54.23013 -4.17213 45448 ft 387 kts 229°
2026-04-28 17:49 54.21462 -4.20998 45448 ft 392 kts 243°
2026-04-28 17:49 54.20415 -4.25380 45435 ft 396 kts 255°
2026-04-28 17:49 54.19476 -4.29818 45445 ft 401 kts 244°
2026-04-28 17:49 54.17982 -4.33872 45444 ft 407 kts 231°
2026-04-28 17:50 54.15989 -4.37339 45448 ft 412 kts 219°
2026-04-28 17:50 54.11230 -4.42866 45431 ft 422 kts 214°
2026-04-28 17:50 54.08977 -4.46102 45441 ft 426 kts 226°
2026-04-28 17:51 54.07141 -4.50088 45442 ft 430 kts 239°
2026-04-28 17:51 54.05802 -4.54656 45437 ft 434 kts 251°
2026-04-28 17:51 54.05019 -4.59612 45435 ft 436 kts 262°
2026-04-28 17:51 54.04828 -4.64776 45434 ft 438 kts 274°
2026-04-28 17:52 54.05239 -4.69913 45444 ft 440 kts 286°
2026-04-28 17:52 54.06240 -4.74830 45438 ft 441 kts 297°
2026-04-28 17:52 54.09828 -4.83215 45447 ft 441 kts 320°
2026-04-28 17:53 54.12273 -4.86356 45450 ft 442 kts 331°
2026-04-28 17:53 54.15040 -4.88631 45452 ft 442 kts 342°
2026-04-28 17:53 54.21066 -4.90744 45458 ft 445 kts 355°
2026-04-28 17:54 54.27276 -4.91106 45455 ft 450 kts
2026-04-28 17:54 54.33560 -4.90330 45456 ft 455 kts
2026-04-28 17:55 54.39904 -4.89253 45452 ft 460 kts 10°
2026-04-28 17:55 54.42998 -4.87881 45443 ft 461 kts 21°
2026-04-28 17:55 54.45898 -4.85531 45454 ft 461 kts 31°
2026-04-28 17:56 54.50667 -4.78309 45457 ft 458 kts 52°
2026-04-28 17:56 54.52367 -4.73691 45455 ft 457 kts 63°
2026-04-28 17:56 54.53534 -4.68612 45455 ft 456 kts 72°
2026-04-28 17:57 54.54162 -4.63273 45454 ft 457 kts 83°
2026-04-28 17:57 54.54211 -4.57786 45453 ft 460 kts 93°
2026-04-28 17:57 54.53662 -4.52357 45454 ft 464 kts 104°
2026-04-28 17:57 54.52523 -4.47137 45452 ft 468 kts 114°
2026-04-28 17:58 54.48637 -4.38095 45454 ft 476 kts 135°
2026-04-28 17:58 54.46019 -4.34597 45450 ft 479 kts 146°
2026-04-28 17:58 54.43062 -4.31955 45449 ft 480 kts 156°
2026-04-28 17:59 54.36537 -4.29579 45445 ft 483 kts 177°
2026-04-28 17:59 54.29914 -4.31294 45451 ft 485 kts 198°
2026-04-28 18:00 54.24005 -4.36912 45450 ft 490 kts 219°
2026-04-28 18:00 54.21567 -4.40976 45450 ft 492 kts 230°
2026-04-28 18:00 54.19575 -4.45726 45447 ft 493 kts 240°
2026-04-28 18:01 54.17197 -4.56552 45444 ft 490 kts 261°
2026-04-28 18:01 54.17161 -4.68017 45452 ft 482 kts 282°
2026-04-28 18:02 54.19458 -4.78600 45443 ft 475 kts 303°
2026-04-28 18:02 54.23777 -4.87009 45448 ft 472 kts 324°
2026-04-28 18:03 54.29541 -4.92179 45456 ft 469 kts 345°
2026-04-28 18:03 54.35940 -4.93094 45457 ft 462 kts 11°
2026-04-28 18:04 54.39131 -4.92673 45442 ft 463 kts 357°
2026-04-28 18:04 54.42280 -4.93828 45451 ft 465 kts 342°
2026-04-28 18:04 54.45147 -4.96383 45460 ft 468 kts 326°
2026-04-28 18:04 54.47472 -5.00315 45464 ft 473 kts 308°
2026-04-28 18:05 54.49059 -5.05293 45469 ft 479 kts 292°
2026-04-28 18:05 54.49728 -5.08925 45461 ft 482 kts 286°
2026-04-28 18:05 54.51353 -5.22168 45463 ft 484 kts 289°
2026-04-28 18:06 54.53627 -5.33036 45453 ft 480 kts 298°
2026-04-28 18:06 54.55514 -5.37704 45462 ft 473 kts 316°
2026-04-28 18:06 54.58088 -5.41117 45463 ft 467 kts 334°
2026-04-28 18:07 54.61113 -5.43000 45472 ft 462 kts 351°
2026-04-28 18:07 54.64307 -5.43182 45474 ft 460 kts
2026-04-28 18:07 54.67353 -5.41662 45480 ft 459 kts 26°
2026-04-28 18:07 54.69993 -5.38567 45475 ft 459 kts 44°
2026-04-28 18:08 54.71939 -5.34215 45478 ft 459 kts 61°
2026-04-28 18:08 54.73009 -5.29037 45477 ft 460 kts 79°
2026-04-28 18:08 54.73101 -5.23522 45473 ft 462 kts 96°
2026-04-28 18:08 54.72275 -5.18194 45467 ft 455 kts 109°
2026-04-28 18:09 54.70997 -5.13274 45464 ft 443 kts 115°
2026-04-28 18:09 54.69562 -5.08619 45439 ft 437 kts 117°
2026-04-28 18:09 54.68157 -5.04359 44588 ft 392 kts 118°
2026-04-28 18:09 54.66790 -5.00389 42806 ft 365 kts 118°
2026-04-28 18:10 54.65484 -4.96810 41394 ft 339 kts 120°
2026-04-28 18:10 54.64130 -4.93723 40278 ft 315 kts 123°
2026-04-28 18:10 54.62788 -4.90924 39384 ft 288 kts 121°
2026-04-28 18:10 54.61629 -4.88312 38554 ft 262 kts 118°
2026-04-28 18:11 54.60573 -4.85824 37230 ft 256 kts 117°
2026-04-28 18:11 54.59501 -4.83336 35769 ft 261 kts 117°
2026-04-28 18:11 54.58379 -4.80797 34266 ft 265 kts 118°
2026-04-28 18:11 54.57253 -4.78253 32547 ft 268 kts 118°
2026-04-28 18:12 54.56140 -4.75732 30873 ft 269 kts 118°
2026-04-28 18:12 54.55009 -4.73167 28862 ft 269 kts 119°
2026-04-28 18:12 54.53874 -4.70598 26769 ft 270 kts 119°
2026-04-28 18:12 54.52741 -4.68013 24669 ft 270 kts 118°
2026-04-28 18:13 54.51616 -4.65352 22613 ft 291 kts 119°
2026-04-28 18:13 54.50413 -4.62601 21301 ft 295 kts 120°
2026-04-28 18:13 54.49194 -4.59783 20811 ft 291 kts 119°
2026-04-28 18:13 54.48000 -4.56967 20219 ft 292 kts 119°
2026-04-28 18:14 54.46810 -4.54139 19617 ft 293 kts 119°
2026-04-28 18:14 54.45618 -4.51300 19019 ft 293 kts 119°
2026-04-28 18:14 54.44422 -4.48446 18364 ft 294 kts 119°
2026-04-28 18:14 54.43229 -4.45587 17647 ft 295 kts 119°
2026-04-28 18:15 54.42037 -4.42709 16925 ft 296 kts 119°
2026-04-28 18:15 54.40713 -4.39958 16236 ft 302 kts 128°
2026-04-28 18:15 54.39225 -4.37414 15521 ft 302 kts 128°
2026-04-28 18:15 54.37824 -4.34748 14857 ft 300 kts 125°
2026-04-28 18:16 54.36451 -4.32075 14280 ft 296 kts 126°
2026-04-28 18:16 54.35090 -4.29443 13626 ft 294 kts 126°
2026-04-28 18:16 54.33747 -4.26833 12997 ft 290 kts 126°
2026-04-28 18:16 54.32425 -4.24252 12431 ft 287 kts 126°
2026-04-28 18:17 54.31118 -4.21689 11823 ft 284 kts 126°
2026-04-28 18:17 54.29834 -4.19155 11441 ft 276 kts 126°
2026-04-28 18:17 54.28581 -4.16679 11438 ft 284 kts 126°
2026-04-28 18:17 54.27229 -4.13968 11447 ft 314 kts 126°
2026-04-28 18:18 54.25750 -4.10962 11445 ft 346 kts 126°
2026-04-28 18:18 54.24163 -4.07707 11446 ft 361 kts 126°
2026-04-28 18:18 54.22545 -4.04382 11443 ft 367 kts 126°
2026-04-28 18:18 54.21464 -4.02161 11444 ft 368 kts 126°
2026-04-28 18:19 54.19276 -3.97667 11445 ft 367 kts 126°
2026-04-28 18:19 54.17641 -3.94317 11444 ft 367 kts 126°
2026-04-28 18:19 54.16005 -3.90982 11435 ft 366 kts 126°
2026-04-28 18:19 54.14370 -3.87665 11438 ft 365 kts 126°
2026-04-28 18:20 54.12734 -3.84355 11436 ft 366 kts 126°
2026-04-28 18:20 54.11089 -3.81027 11439 ft 367 kts 126°
2026-04-28 18:20 54.09442 -3.77698 11433 ft 368 kts 126°
2026-04-28 18:20 54.07793 -3.74371 11431 ft 366 kts 126°
2026-04-28 18:21 54.06199 -3.71013 11431 ft 363 kts 123°
2026-04-28 18:21 54.04767 -3.67549 11439 ft 362 kts 120°
2026-04-28 18:21 54.03375 -3.63995 11435 ft 361 kts 120°
2026-04-28 18:21 54.01982 -3.60378 11435 ft 363 kts 119°
2026-04-28 18:22 54.00601 -3.56768 11438 ft 363 kts 119°
2026-04-28 18:22 53.99226 -3.53176 11435 ft 361 kts 119°
2026-04-28 18:22 53.97857 -3.49598 11430 ft 361 kts 119°
2026-04-28 18:22 53.96481 -3.46010 11374 ft 365 kts 119°
2026-04-28 18:23 53.95103 -3.42413 11246 ft 361 kts 119°
2026-04-28 18:23 53.93754 -3.38900 11135 ft 359 kts 119°
2026-04-28 18:23 53.92392 -3.35364 11019 ft 358 kts 119°
2026-04-28 18:23 53.91094 -3.32021 10987 ft 305 kts 120°
2026-04-28 18:24 53.89892 -3.28970 11003 ft 303 kts 120°
2026-04-28 18:24 53.89122 -3.27035 10995 ft 284 kts 120°
2026-04-28 18:24 53.87804 -3.23811 9563 ft 225 kts 120°
2026-04-28 18:24 53.86930 -3.21696 7754 ft 213 kts 120°
2026-04-28 18:25 53.86114 -3.19674 6069 ft 204 kts 120°
2026-04-28 18:25 53.85344 -3.17694 4416 ft 198 kts 120°
2026-04-28 18:25 53.84602 -3.15747 2818 ft 195 kts 119°
2026-04-28 18:26 53.83030 -3.11691 1907 ft 216 kts 120°
2026-04-28 18:26 53.82209 -3.09590 1748 ft 212 kts 119°
2026-04-28 18:26 53.81574 -3.07342 1510 ft 206 kts 107°
2026-04-28 18:26 53.80633 -3.05760 1285 ft 191 kts 166°
2026-04-28 18:27 53.79363 -3.06248 893 ft 186 kts 199°
2026-04-28 18:27 53.78270 -3.06921 809 ft 145 kts 193°
2026-04-28 18:27 53.77505 -3.06771 629 ft 98 kts 122°
2026-04-28 18:27 53.77359 -3.06477 9 ft 0 kts 189°
2026-04-28 18:29 53.77386 -3.06422 68 ft 0 kts 188°
2026-04-28 18:29 53.77389 -3.06421 896 ft 0 kts
2026-04-28 18:29 53.78065 -3.06484 2699 ft 186 kts 360°
2026-04-28 18:30 53.79258 -3.06671 2819 ft 150 kts 359°
2026-04-28 18:30 53.79583 -3.06746 2777 ft 142 kts 357°
2026-04-28 18:30 53.80826 -3.08585 2083 ft 157 kts 296°
2026-04-28 18:30 53.80758 -3.10383 1720 ft 161 kts 246°
2026-04-28 18:31 53.80267 -3.11297 1486 ft 153 kts 211°
2026-04-28 18:31 53.79283 -3.11474 1169 ft 137 kts 163°
2026-04-28 18:31 53.78323 -3.10342 854 ft 122 kts 126°
2026-04-28 18:31 53.77786 -3.09292 650 ft 114 kts 117°
2026-04-28 18:32 53.77460 -3.08113 441 ft 111 kts 103°
2026-04-28 18:32 53.77368 -3.07269 369 ft 105 kts 94°
2026-04-28 18:32 53.77308 -3.06048 263 ft 107 kts 95°
2026-04-28 18:32 53.77247 -3.04754 137 ft 112 kts 95°
2026-04-28 18:33 53.77184 -3.03505 39 ft 93 kts 94°
2026-04-28 18:33 53.77149 -3.02713 29 ft 44 kts 94°
2026-04-28 18:33 53.77133 -3.02353 30 ft 26 kts 94°
2026-04-28 18:33 53.77118 -3.02037 33 ft 28 kts 95°
2026-04-28 18:34 53.77104 -3.01671 33 ft 30 kts 91°
2026-04-28 18:34 53.77102 -3.01488 32 ft 8 kts 90°
2026-04-28 18:34 53.77088 -3.01491 31 ft 7 kts 277°
2026-04-28 18:34 53.77098 -3.01633 32 ft 16 kts 276°
2026-04-28 18:35 53.77114 -3.01877 33 ft 26 kts 275°
2026-04-28 18:35 53.77135 -3.02248 31 ft 35 kts 275°
2026-04-28 18:35 53.77157 -3.02662 29 ft 37 kts 275°
2026-04-28 18:35 53.77176 -3.03099 33 ft 38 kts 272°
2026-04-28 18:36 53.77193 -3.03544 36 ft 36 kts 275°
2026-04-28 18:36 53.77221 -3.03858 34 ft 21 kts 301°
2026-04-28 18:36 53.77322 -3.04078 33 ft 26 kts 307°
2026-04-28 18:36 53.77400 -3.04250 34 ft 18 kts 308°
2026-04-28 18:37 53.77476 -3.04332 34 ft 15 kts 20°
2026-04-28 18:37 53.77581 -3.04227 34 ft 13 kts 26°
2026-04-28 18:37 53.77664 -3.04194 34 ft 13 kts 317°
2026-04-28 18:37 53.77725 -3.04255 34 ft 3 kts 37°
2026-04-28 18:38 53.77723 -3.04242 34 ft 0 kts 117°